Location: Burland Observatory
(39.4088°N, 105.4217°W)
Time: 01:38:32
(UTC-07:00)

Vanguard 3 - Pass Details

Date: 14 December 2019
Orbit: 507 x 3264 km, 33.4° (Epoch: 26 January)

Event Time Altitude Azimuth Distance (km) Brightness Sun altitude
Rises 11:19:31 0° 275° (W) 4,642 10.9 26.8°
Reaches altitude 10° 11:22:13 10° 269° (W) 3,967 10.7 26.9°
Maximum altitude 11:32:57 49° 199° (SSW) 2,907 11.2 27.1°
Drops below altitude 10° 11:49:53 10° 132° (SE) 6,044 12.3 27.3°
Sets 11:55:11 0° 128° (SE) 7,193 12.5 27.4°
